Zurück zum Katalog

WEITONG-1 01

AktivKommunikationSSO
NORAD 68202·PAYLOAD·🇨🇳 China
Dieser Satellitenname wurde noch nicht durch offizielle Quellen bestätigt.

Gestartet Mar 16, 2026 von Jiuquan Satellite Launch Center

Loading…

Nächste Überflüge (nächste 24 Stunden)

TLE

AktuellSource: Space-Track

Epoche: Sep 14, 2026, 11:45 UTC

1 68202U 26052E   26257.49008391  .00004935  00000-0  28881-3 0  9990
2 68202  97.5259 331.0577 0011334  13.1533 346.9991 15.12249101 27546

Verfolge WEITONG-1 01 in Echtzeit mit AllMySat

Download on the App Store